owner,sensor,date,latitude,longitude,vertical_datum,wind_speed,wind_to_direction,wind_speed_of_gust,qcFlag 
TCOON,ioos:station:TCOON:057:1,2005-02-01T08:00:00Z,28.4460,-96.3961,0.0,10.0,20.0,99.0,'11111222,11111222,11144222' 
TCOON,ioos:station:TCOON:057:1,2005-02-01T09:00:00Z,28.4460,-96.3961,0.0,11.0,20.0,99.0,'11111222,11111222,11144222' 
TCOON,ioos:station:TCOON:057:1,2005-02-01T10:00:00Z,28.4460,-96.3961,0.0,8.0,20.0,99.0,'11111222,11111222,11144222' 
TCOON,ioos:station:TCOON:057:1,2005-02-01T11:00:00Z,28.4460,-96.3961,0.0,8.0,10.0,99.0,'11111222,11111222,11144222' 
TCOON,ioos:station:TCOON:057:1,2005-02-01T12:00:00Z,28.4460,-96.3961,0.0,8.0,360.0,99.0,'11111222,11144222,11144222' 
TCOON,ioos:station:TCOON:057:1,2005-02-01T13:00:00Z,28.4460,-96.3961,0.0,9.0,10.0,99.0,'11111222,11111222,11144222' 
TCOON,ioos:station:TCOON:057:1,2005-02-01T14:00:00Z,28.4460,-96.3961,0.0,9.0,0.0,99.0,'11111222,11111222,11144222' 
TCOON,ioos:station:TCOON:057:1,2005-02-01T15:00:00Z,28.4460,-96.3961,0.0,7.0,20.0,99.0,'11111222,11111222,11144222' 
TCOON,ioos:station:TCOON:057:1,2005-02-01T17:00:00Z,28.4460,-96.3961,0.0,8.0,20.0,99.0,'11111222,11111222,11144222' 
TCOON,ioos:station:TCOON:057:1,2005-02-01T18:00:00Z,28.4460,-96.3961,0.0,6.0,50.0,99.0,'11111222,11111222,11144222' 
TCOON,ioos:station:TCOON:057:1,2005-02-01T19:00:00Z,28.4460,-96.3961,0.0,6.0,60.0,99.0,'11111222,11111222,11144222' 
TCOON,ioos:station:TCOON:057:1,2005-02-01T20:00:00Z,28.4460,-96.3961,0.0,4.0,60.0,99.0,'11111222,11111222,11144222' 
TCOON,ioos:station:TCOON:057:1,2005-02-02T09:00:00Z,28.4460,-96.3961,0.0,10.0,340.0,12.0,'11111222,11111222,11111222' 
TCOON,ioos:station:TCOON:057:1,2005-02-02T10:00:00Z,28.4460,-96.3961,0.0,11.0,340.0,12.0,'11111222,11111222,11111222' 
TCOON,ioos:station:TCOON:057:1,2005-02-02T11:00:00Z,28.4460,-96.3961,0.0,10.0,340.0,13.0,'11111222,11111222,11111222' 
TCOON,ioos:station:TCOON:057:1,2005-02-02T12:00:00Z,28.4460,-96.3961,0.0,10.0,340.0,99.0,'11111222,11111222,11144222' 
TCOON,ioos:station:TCOON:057:1,2005-02-02T13:00:00Z,28.4460,-96.3961,0.0,9.0,320.0,99.0,'11111222,11111222,11144222' 
TCOON,ioos:station:TCOON:057:1,2005-02-02T15:00:00Z,28.4460,-96.3961,0.0,9.0,330.0,99.0,'11111222,11111222,11144222' 
TCOON,ioos:station:TCOON:057:1,2005-02-02T16:00:00Z,28.4460,-96.3961,0.0,9.0,340.0,99.0,'11111222,11111222,11144222' 
TCOON,ioos:station:TCOON:057:1,2005-02-02T18:00:00Z,28.4460,-96.3961,0.0,9.0,340.0,99.0,'11111222,11111222,11144222' 
TCOON,ioos:station:TCOON:057:1,2005-02-02T19:00:00Z,28.4460,-96.3961,0.0,9.0,330.0,99.0,'11111222,11111222,11144222' 
TCOON,ioos:station:TCOON:057:1,2005-02-02T21:00:00Z,28.4460,-96.3961,0.0,8.0,340.0,99.0,'11111222,11111222,11144222' 
TCOON,ioos:station:TCOON:057:1,2005-02-02T22:00:00Z,28.4460,-96.3961,0.0,10.0,340.0,99.0,'11111222,11111222,11144222' 
TCOON,ioos:station:TCOON:057:1,2005-02-03T00:00:00Z,28.4460,-96.3961,0.0,10.0,340.0,99.0,'11111222,11111222,11144222' 
TCOON,ioos:station:TCOON:057:1,2005-02-03T01:00:00Z,28.4460,-96.3961,0.0,8.0,340.0,99.0,'11111222,11111222,11144222' 
TCOON,ioos:station:TCOON:057:1,2005-02-03T10:00:00Z,28.4460,-96.3961,0.0,7.0,340.0,9.0,'11111222,11111222,11111222' 
TCOON,ioos:station:TCOON:057:1,2005-02-03T11:00:00Z,28.4460,-96.3961,0.0,7.0,340.0,8.0,'11111222,11111222,11111222' 
TCOON,ioos:station:TCOON:057:1,2005-02-03T12:00:00Z,28.4460,-96.3961,0.0,6.0,0.0,9.0,'11111222,11111222,11111222' 
TCOON,ioos:station:TCOON:057:1,2005-02-03T13:00:00Z,28.4460,-96.3961,0.0,6.0,360.0,99.0,'11111222,11144222,11144222' 
TCOON,ioos:station:TCOON:057:1,2005-02-03T18:00:00Z,28.4460,-96.3961,0.0,6.0,360.0,99.0,'11111222,11144222,11144222' 
TCOON,ioos:station:TCOON:057:1,2005-02-03T19:00:00Z,28.4460,-96.3961,0.0,5.0,350.0,99.0,'11111222,11111222,11144222' 
TCOON,ioos:station:TCOON:057:1,2005-02-03T21:00:00Z,28.4460,-96.3961,0.0,5.0,340.0,99.0,'11111222,11111222,11144222' 
TCOON,ioos:station:TCOON:057:1,2005-02-03T22:00:00Z,28.4460,-96.3961,0.0,4.0,340.0,99.0,'11111222,11111222,11144222' 
TCOON,ioos:station:TCOON:057:1,2005-02-04T00:00:00Z,28.4460,-96.3961,0.0,5.0,20.0,99.0,'11111222,11111222,11144222' 
TCOON,ioos:station:TCOON:057:1,2005-02-04T01:00:00Z,28.4460,-96.3961,0.0,6.0,360.0,99.0,'11111222,11144222,11144222' 
TCOON,ioos:station:TCOON:057:1,2005-02-04T03:00:00Z,28.4460,-96.3961,0.0,6.0,0.0,99.0,'11111222,11111222,11144222' 
TCOON,ioos:station:TCOON:057:1,2005-02-04T04:00:00Z,28.4460,-96.3961,0.0,4.0,20.0,99.0,'11111222,11111222,11144222' 
TCOON,ioos:station:TCOON:057:1,2005-02-04T06:00:00Z,28.4460,-96.3961,0.0,4.0,20.0,99.0,'11111222,11111222,11144222' 
TCOON,ioos:station:TCOON:057:1,2005-02-04T07:00:00Z,28.4460,-96.3961,0.0,3.0,10.0,99.0,'11111222,11111222,11144222' 
TCOON,ioos:station:TCOON:057:1,2005-02-04T16:00:00Z,28.4460,-96.3961,0.0,4.0,40.0,99.0,'11111222,11111222,11144222' 
TCOON,ioos:station:TCOON:057:1,2005-02-04T18:00:00Z,28.4460,-96.3961,0.0,3.0,10.0,99.0,'11111222,11111222,11144222' 
TCOON,ioos:station:TCOON:057:1,2005-02-04T19:00:00Z,28.4460,-96.3961,0.0,3.0,20.0,99.0,'11111222,11111222,11144222' 
TCOON,ioos:station:TCOON:057:1,2005-02-04T21:00:00Z,28.4460,-96.3961,0.0,1.0,320.0,99.0,'11111222,11111222,11144222' 
TCOON,ioos:station:TCOON:057:1,2005-02-04T22:00:00Z,28.4460,-96.3961,0.0,1.0,340.0,99.0,'11111222,11111222,11144222' 
TCOON,ioos:station:TCOON:057:1,2005-02-05T00:00:00Z,28.4460,-96.3961,0.0,1.0,100.0,99.0,'11111222,11111222,11144222' 
TCOON,ioos:station:TCOON:057:1,2005-02-05T01:00:00Z,28.4460,-96.3961,0.0,2.0,110.0,99.0,'11111222,11111222,11144222' 
TCOON,ioos:station:TCOON:057:1,2005-02-05T03:00:00Z,28.4460,-96.3961,0.0,3.0,90.0,99.0,'11111222,11111222,11144222' 
TCOON,ioos:station:TCOON:057:1,2005-02-05T04:00:00Z,28.4460,-96.3961,0.0,3.0,100.0,99.0,'11111222,11111222,11144222' 
TCOON,ioos:station:TCOON:057:1,2005-02-05T06:00:00Z,28.4460,-96.3961,0.0,0.0,0.0,99.0,'11111222,11111222,11144222' 
TCOON,ioos:station:TCOON:057:1,2005-02-05T07:00:00Z,28.4460,-96.3961,0.0,3.0,20.0,99.0,'11111222,11111222,11144222' 
TCOON,ioos:station:TCOON:057:1,2005-02-05T09:00:00Z,28.4460,-96.3961,0.0,3.0,60.0,99.0,'11111222,11111222,11144222' 
TCOON,ioos:station:TCOON:057:1,2005-02-05T10:00:00Z,28.4460,-96.3961,0.0,3.0,60.0,99.0,'11111222,11111222,11144222' 
TCOON,ioos:station:TCOON:057:1,2005-02-05T12:00:00Z,28.4460,-96.3961,0.0,4.0,50.0,99.0,'11111222,11111222,11144222' 
TCOON,ioos:station:TCOON:057:1,2005-02-05T13:00:00Z,28.4460,-96.3961,0.0,4.0,50.0,99.0,'11111222,11111222,11144222' 
TCOON,ioos:station:TCOON:057:1,2005-02-05T15:00:00Z,28.4460,-96.3961,0.0,5.0,60.0,99.0,'11111222,11111222,11144222' 
TCOON,ioos:station:TCOON:057:1,2005-02-05T16:00:00Z,28.4460,-96.3961,0.0,4.0,70.0,99.0,'11111222,11111222,11144222' 
TCOON,ioos:station:TCOON:057:1,2005-02-06T06:00:00Z,28.4460,-96.3961,0.0,5.0,90.0,99.0,'11111222,11111222,11144222' 
TCOON,ioos:station:TCOON:057:1,2005-02-06T07:00:00Z,28.4460,-96.3961,0.0,4.0,100.0,99.0,'11111222,11111222,11144222' 
TCOON,ioos:station:TCOON:057:1,2005-02-06T09:00:00Z,28.4460,-96.3961,0.0,5.0,120.0,99.0,'11111222,11111222,11144222' 
TCOON,ioos:station:TCOON:057:1,2005-02-06T10:00:00Z,28.4460,-96.3961,0.0,5.0,130.0,99.0,'11111222,11111222,11144222' 
TCOON,ioos:station:TCOON:057:1,2005-02-06T12:00:00Z,28.4460,-96.3961,0.0,5.0,130.0,99.0,'11111222,11111222,11144222' 
TCOON,ioos:station:TCOON:057:1,2005-02-06T13:00:00Z,28.4460,-96.3961,0.0,5.0,140.0,99.0,'11111222,11111222,11144222' 
TCOON,ioos:station:TCOON:057:1,2005-02-06T15:00:00Z,28.4460,-96.3961,0.0,4.0,140.0,99.0,'11111222,11111222,11144222' 
TCOON,ioos:station:TCOON:057:1,2005-02-06T16:00:00Z,28.4460,-96.3961,0.0,5.0,150.0,99.0,'11111222,11111222,11144222' 
TCOON,ioos:station:TCOON:057:1,2005-02-06T18:00:00Z,28.4460,-96.3961,0.0,5.0,230.0,99.0,'11111222,11111222,11144222' 
TCOON,ioos:station:TCOON:057:1,2005-02-06T19:00:00Z,28.4460,-96.3961,0.0,4.0,180.0,99.0,'11111222,11111222,11144222' 
TCOON,ioos:station:TCOON:057:1,2005-02-07T10:00:00Z,28.4460,-96.3961,0.0,0.0,0.0,0.0,'11111222,11111222,11111222' 
TCOON,ioos:station:TCOON:057:1,2005-02-07T11:00:00Z,28.4460,-96.3961,0.0,1.0,120.0,3.0,'11111222,11111222,11111222' 
TCOON,ioos:station:TCOON:057:1,2005-02-07T12:00:00Z,28.4460,-96.3961,0.0,3.0,160.0,5.0,'11111222,11111222,11111222' 
TCOON,ioos:station:TCOON:057:1,2005-02-07T15:00:00Z,28.4460,-96.3961,0.0,3.0,140.0,99.0,'11111222,11111222,11144222' 
TCOON,ioos:station:TCOON:057:1,2005-02-07T16:00:00Z,28.4460,-96.3961,0.0,3.0,150.0,99.0,'11111222,11111222,11144222' 
TCOON,ioos:station:TCOON:057:1,2005-02-07T18:00:00Z,28.4460,-96.3961,0.0,0.0,0.0,99.0,'11111222,11111222,11144222' 
TCOON,ioos:station:TCOON:057:1,2005-02-07T19:00:00Z,28.4460,-96.3961,0.0,4.0,170.0,99.0,'11111222,11111222,11144222' 
TCOON,ioos:station:TCOON:057:1,2005-02-23T05:00:00Z,28.4460,-96.3961,0.0,4.0,120.0,99.0,'11111222,11111222,11144222' 
TCOON,ioos:station:TCOON:057:1,2005-02-23T08:00:00Z,28.4460,-96.3961,0.0,3.0,90.0,99.0,'11111222,11111222,11144222' 
TCOON,ioos:station:TCOON:057:1,2005-02-23T11:00:00Z,28.4460,-96.3961,0.0,3.0,110.0,99.0,'11111222,11111222,11144222' 
TCOON,ioos:station:TCOON:057:1,2005-02-23T14:00:00Z,28.4460,-96.3961,0.0,1.0,150.0,99.0,'11111222,11111222,11144222' 
TCOON,ioos:station:TCOON:057:1,2005-02-23T17:00:00Z,28.4460,-96.3961,0.0,0.0,0.0,99.0,'11111222,11111222,11144222' 
TCOON,ioos:station:TCOON:057:1,2005-02-23T20:00:00Z,28.4460,-96.3961,0.0,3.0,120.0,99.0,'11111222,11111222,11144222' 
TCOON,ioos:station:TCOON:057:1,2005-02-23T23:00:00Z,28.4460,-96.3961,0.0,2.0,160.0,99.0,'11111222,11111222,11144222' 
TCOON,ioos:station:TCOON:057:1,2005-02-24T02:00:00Z,28.4460,-96.3961,0.0,4.0,90.0,99.0,'11111222,11111222,11144222' 
TCOON,ioos:station:TCOON:057:1,2005-02-24T05:00:00Z,28.4460,-96.3961,0.0,4.0,120.0,99.0,'11111222,11111222,11144222' 
TCOON,ioos:station:TCOON:057:1,2005-02-24T08:00:00Z,28.4460,-96.3961,0.0,4.0,100.0,99.0,'11111222,11111222,11144222' 
TCOON,ioos:station:TCOON:057:1,2005-02-24T11:00:00Z,28.4460,-96.3961,0.0,0.0,0.0,99.0,'11111222,11111222,11144222' 
TCOON,ioos:station:TCOON:057:1,2005-02-25T17:00:00Z,28.4460,-96.3961,0.0,5.0,50.0,99.0,'11111222,11111222,11144222' 
TCOON,ioos:station:TCOON:057:1,2005-02-25T20:00:00Z,28.4460,-96.3961,0.0,3.0,0.0,99.0,'11111222,11111222,11144222' 
TCOON,ioos:station:TCOON:057:1,2005-02-25T23:00:00Z,28.4460,-96.3961,0.0,4.0,30.0,99.0,'11111222,11111222,11144222' 
TCOON,ioos:station:TCOON:057:1,2005-02-26T02:00:00Z,28.4460,-96.3961,0.0,4.0,20.0,99.0,'11111222,11111222,11144222' 
TCOON,ioos:station:TCOON:057:1,2005-02-26T05:00:00Z,28.4460,-96.3961,0.0,1.0,110.0,99.0,'11111222,11111222,11144222' 
TCOON,ioos:station:TCOON:057:1,2005-02-26T08:00:00Z,28.4460,-96.3961,0.0,4.0,110.0,99.0,'11111222,11111222,11144222' 
TCOON,ioos:station:TCOON:057:1,2005-02-26T17:00:00Z,28.4460,-96.3961,0.0,12.0,60.0,99.0,'11111222,11111222,11144222' 
TCOON,ioos:station:TCOON:057:1,2005-02-26T20:00:00Z,28.4460,-96.3961,0.0,9.0,60.0,99.0,'11111222,11111222,11144222' 
TCOON,ioos:station:TCOON:057:1,2005-02-27T20:00:00Z,28.4460,-96.3961,0.0,5.0,350.0,99.0,'11111222,11111222,11144222' 
TCOON,ioos:station:TCOON:057:1,2005-02-27T23:00:00Z,28.4460,-96.3961,0.0,2.0,340.0,99.0,'11111222,11111222,11144222' 
TCOON,ioos:station:TCOON:057:1,2005-02-28T02:00:00Z,28.4460,-96.3961,0.0,3.0,210.0,99.0,'11111222,11111222,11144222' 
TCOON,ioos:station:TCOON:057:1,2005-02-28T05:00:00Z,28.4460,-96.3961,0.0,3.0,170.0,99.0,'11111222,11111222,11144222' 
TCOON,ioos:station:TCOON:057:1,2005-02-28T08:00:00Z,28.4460,-96.3961,0.0,0.0,0.0,99.0,'11111222,11111222,11144222' 
TCOON,ioos:station:TCOON:057:1,2005-02-28T11:00:00Z,28.4460,-96.3961,0.0,6.0,50.0,99.0,'11111222,11111222,11144222' 
TCOON,ioos:station:TCOON:057:1,2005-02-28T17:00:00Z,28.4460,-96.3961,0.0,5.0,0.0,99.0,'11111222,11111222,11144222' 
TCOON,ioos:station:TCOON:057:1,2005-02-28T20:00:00Z,28.4460,-96.3961,0.0,0.0,0.0,99.0,'11111222,11111222,11144222' 
TCOON,ioos:station:TCOON:057:1,2005-02-28T23:00:00Z,28.4460,-96.3961,0.0,0.0,0.0,99.0,'11111222,11111222,11144222' 
 
DISCLAIMER: The Gulf of Mexico Coastal and Ocean Observing (GCOOS) Data Portal aggregates data from the regional data providers for the convenience of all data users. Data published on this website should not be used for navigation or certain other uses as we cannot guarantee data accuracy or availability. The data and delivery services are provided 'as is' without warranty of any kind. Data Source: Gulf of Mexico Coastal Ocean Observing System Data Portal (http://data.gcoos.org/) 
